This is the latest recevied weather packets stored in our database for station/object K1RFS. If no packets are shown the sender has not sent any weather packets the latest 10 day(s).
| Time | Temp. | Humidity | Pressure | Rain* | Wind** | Luminosity | Snow |
|---|---|---|---|---|---|---|---|
| 1777401823 | 10.56° C | 57% | 1006 hPa | 0 mm | - | 834 W/m² | - |
| 1777401523 | 10.56° C | 55% | 1006 hPa | 0 mm | - | 195 W/m² | - |
| 1777401213 | 10.56° C | 54% | 1006.2 hPa | 0 mm | - | 128 W/m² | - |
| 1777400909 | 10.56° C | 52% | 1005.7 hPa | 0 mm | - | 125 W/m² | - |
| 1777400605 | 11.11° C | 52% | 1006 hPa | 0 mm | - | 117 W/m² | - |
| 1777400303 | 11.11° C | 51% | 1006 hPa | 0 mm | - | 138 W/m² | - |
| 1777399998 | 12.22° C | 53% | 1006.2 hPa | 0 mm | - | 591 W/m² | - |
| 1777399696 | 11.11° C | 50% | 1006 hPa | 0 mm | - | 694 W/m² | - |
| 1777399392 | 10.56° C | 55% | 1006.2 hPa | 0 mm | - | 682 W/m² | - |
| 1777399090 | 9.44° C | 56% | 1006.1 hPa | 0 mm | - | 651 W/m² | - |
| 1777398787 | 9.44° C | 58% | 1005.8 hPa | 0 mm | - | 83 W/m² | - |
| 1777398484 | 8.89° C | 54% | 1006 hPa | 0 mm | - | 52 W/m² | - |
| 1777398181 | 10° C | 54% | 1006.1 hPa | 0 mm | - | 43 W/m² | - |
| 1777397878 | 10° C | 52% | 1005.8 hPa | 0 mm | - | 51 W/m² | - |
| 1777397578 | 10° C | 52% | 1005.7 hPa | 0 mm | - | 57 W/m² | - |
| 1777397274 | 10.56° C | 53% | 1005.5 hPa | 0 mm | - | 68 W/m² | - |
| 1777396971 | 11.67° C | 52% | 1005.7 hPa | 0 mm | - | 78 W/m² | - |
| 1777396668 | 11.67° C | 52% | 1005.8 hPa | 0 mm | - | 134 W/m² | - |
| 1777396365 | 10.56° C | 52% | 1005.6 hPa | 0 mm | - | 169 W/m² | - |
| 1777396061 | 10.56° C | 53% | 1005.7 hPa | 0 mm | - | 142 W/m² | - |
| 1777395757 | 10.56° C | 55% | 1005.8 hPa | 0 mm | - | 141 W/m² | - |
| 1777395452 | 10.56° C | 59% | 1005.7 hPa | 0 mm | - | 123 W/m² | - |
| 1777395150 | 10° C | 59% | 1005.6 hPa | 0 mm | - | 155 W/m² | - |
| 1777394847 | 10° C | 60% | 1005.6 hPa | 0 mm | - | 122 W/m² | - |
| 1777394543 | 10° C | 62% | 1005.5 hPa | 0 mm | - | 107 W/m² | - |
* Rain latest hour (hover to see other rain measurements)
** Current wind speed in m/s (hover to see current wind gust speed)